sat.trackr.live / text

‹ back to catalog

STARLINK-32337

NORAD 61643 · 2024-191Y

PAYLOAD ACTIVE UNKNOWN

§ Identity

Operator
Country
US
Launch date
2024-10-23
Launch site
AFETR
Launch vehicle
Mass (kg)
RCS (m²)

Purposes: comms

External: N2YO · Heavens-Above · Gunter

§ Orbital elements

Epoch: 2026-05-25T02:27:57.932640Z

Period
94.27 min
Inclination
43.0030°
Eccentricity
0.0001117
Mean motion
15.27581682 rev/d
Perigee alt
482.3 km
Apogee alt
483.8 km
Semi-major
6,861.2 km
B*
3.8792e-5
RAAN
82.8854°
Arg perigee
271.7000°
Mean anomaly
88.3724°
Rev number
8,998

§ Raw data

STARLINK-323371 61643U 24191Y   26145.10275385  .00000806  00000+0  38792-4 0  99922 61643  43.0030  82.8854 0001117 271.7000  88.3724 15.27581682 89985

JSON: /api/v1/satellites/61643 · /tle

For live sub-satellite position, see the globe view (requires WebGL).

§ Visibility from observer

Set your observer location to see the next 7 days of passes ≥ 10°. The values pass through the URL so the page stays shareable.

No JS? Fill the form by hand. The geolocation button needs JavaScript.